[[{"header":{"parameterUnit":"m.s-1","parameterCategory":1,"la1":30.2991,"la2":30.254,"lo1":-89.0895,"lo2":-89.0444,"dy":0.0017,"dx":0.0017,"nx":28,"ny":28,"refTime":"2025-07-31T21:00:00:Z","depth":0,"parameterNumber":2,"parameterNumberName":"U-component_of_WINDS"},"data":[0,0,0,0,0,0,0,0,0,0,0,0,0,0,0,0,0,0,0,0,0,0,0,0,0,0,0,0,0,0,0,0,0,0,0,0,0,0,0,0,0,0,0,0,0,0,0,0,0,0,0,0,0,0,0,0,0,0,0.7924,0.7924,0,0.7953,0.7953,0.7953,0.7958,0.7958,0.7958,0.7958,0.7987,0.7988,0.7989,0,0,0,0,0,0,0,0,0,0,0,0,0,0.7874,0.7875,0.7924,0.7924,0.7924,0.7953,0.7953,0.7953,0.7958,0.7958,0.7958,0.7958,0.7987,0.7988,0.7989,0,0,0,0,0,0,0,0,0,0,0,0,0,0.7898,0.7875,0.7924,0.793,0.7931,0.7953,0.7953,0.7954,0.7958,0.7958,0.7958,0.7957,0.7986,0.7988,0.7989,0.8006,0,0,0.7994,0.7995,0,0,0,0,0,0,0,0,0.7897,0.79,0.7929,0.793,0.7931,0.7952,0.7946,0.7971,0.7959,0.7948,0.7958,0.7957,0.7976,0.7978,0.7984,0.8007,0.8009,0.7994,0.7995,0.7996,0.7996,0,0,0,0,0,0,0,0.7895,0.7899,0.7935,0.7929,0.7931,0.7932,0.7935,0.7951,0.7963,0.7949,0.7949,0.7953,0.7976,0.7983,0.7985,0.8009,0.7994,0.7995,0.7996,0.7997,0.805,0.8051,0,0,0,0,0,0,0.7892,0.7898,0.7934,0.7936,0.7913,0.7933,0.7937,0.7945,0.7963,0.7966,0.7953,0.7953,0.798,0.7983,0.7986,0.8008,0.7996,0.7997,0.7998,0.805,0.805,0.8051,0,0,0,0,0,0,0.7891,0.7896,0.7933,0.7917,0.7922,0.7935,0.7944,0.7946,0.7953,0.7966,0.7969,0.7957,0.798,0.7984,0.8002,0.8009,0.7998,0.7999,0.8049,0.805,0.8051,0.8052,0,0,0,0,0,0,0.789,0.7895,0.7901,0.7917,0.7923,0.7948,0.7944,0.7947,0.7955,0.7955,0.7971,0.7973,0.798,0.7999,0.8003,0.8011,0.8,0.8048,0.8049,0.805,0.8051,0.8052,0.8054,0,0,0,0,0,0.7888,0.79,0.7901,0.7906,0.793,0.7948,0.7951,0.7959,0.7956,0.7962,0.7972,0.7973,0.8008,0.8001,0.8005,0.8014,0.8048,0.8049,0.805,0.805,0.8052,0.8054,0,0,0,0,0,0,0.7883,0.7902,0.7904,0.7921,0.7933,0.7949,0.7957,0.796,0.7973,0.7972,0.7981,0.7985,0.8002,0.801,0.8002,0.8032,0.8028,0.803,0.8027,0.8028,0.8029,0.8027,0.8002,0,0,0,0,0,0.7885,0.7897,0.7913,0.7926,0.7932,0.7944,0.7952,0.7957,0.7969,0.7974,0.7985,0.7997,0.8011,0.802,0.8034,0.8053,0.8057,0.8061,0.8062,0.8063,0.8065,0.8077,0.808,0.8055,0.8055,0.8055,0,0,0.7887,0.7898,0.7905,0.7926,0.7936,0.7949,0.7948,0.7962,0.7972,0.7976,0.7994,0.8003,0.8017,0.8036,0.8045,0.8043,0.8073,0.8064,0.8065,0.8066,0.8079,0.8081,0.8083,0.8055,0.8055,0.8055,0,0,0.7897,0.7907,0.792,0.7931,0.7946,0.7954,0.7958,0.7974,0.798,0.7998,0.8002,0.8015,0.8038,0.8049,0.8058,0.8076,0.8078,0.808,0.8086,0.8099,0.8101,0.8102,0.811,0.8113,0.8082,0.8082,0.8082,0,0.7898,0.7918,0.7927,0.7941,0.7951,0.7956,0.797,0.798,0.7999,0.8006,0.8004,0.8035,0.8045,0.8067,0.8072,0.8079,0.8084,0.8078,0.81,0.8102,0.8103,0.8111,0.8113,0.8082,0.8082,0.8082,0.8082,0,0.7919,0.7933,0.7942,0.7961,0.7972,0.7986,0.7997,0.8007,0.8012,0.8021,0.804,0.8053,0.807,0.8076,0.808,0.81,0.8098,0.8098,0.8093,0.8106,0.8113,0.8116,0.8082,0.8082,0.8082,0.8082,0,0,0.7926,0.7951,0.7954,0.7964,0.7983,0.7994,0.801,0.8027,0.8036,0.8049,0.8063,0.8084,0.8085,0.8095,0.81,0.8111,0.8127,0.811,0.811,0.8113,0.8151,0.8151,0.8154,0.8128,0.8129,0.8129,0.815,0,0.7939,0.7966,0.7976,0.7999,0.8013,0.802,0.8034,0.8047,0.8056,0.807,0.808,0.8095,0.8094,0.81,0.8111,0.8122,0.8134,0.8121,0.8142,0.8143,0.8138,0.8158,0.8158,0.8177,0.8153,0.8153,0.8154,0,0.7958,0.7973,0.7998,0.8017,0.8023,0.8035,0.8053,0.8066,0.8082,0.8088,0.8101,0.8106,0.8124,0.8119,0.8144,0.8135,0.8145,0.8152,0.8153,0.8155,0.8149,0.8161,0.8183,0.8186,0.8158,0.8157,0.8157,0,0.7962,0.7988,0.8007,0.8015,0.8037,0.8046,0.8056,0.8072,0.8082,0.8098,0.8106,0.8123,0.8133,0.8147,0.8158,0.8153,0.8183,0.8178,0.8189,0.8189,0.8194,0.8194,0.8218,0.82,0.82,0.82,0.82,0,0.7976,0.7991,0.8009,0.802,0.8038,0.805,0.8067,0.8077,0.8092,0.8106,0.8113,0.8127,0.814,0.8156,0.8165,0.8185,0.8189,0.8195,0.8198,0.8195,0.8194,0.8201,0.82,0.8201,0.82,0.82,0.82,0,0.7983,0.7995,0.8016,0.8037,0.8042,0.8055,0.8072,0.8084,0.8095,0.8113,0.8118,0.8134,0.8153,0.8166,0.819,0.8196,0.8218,0.822,0.8213,0.8214,0.8225,0.8224,0.8254,0.8259,0.8237,0.8237,0.8238,0,0.7991,0.8003,0.8025,0.8036,0.8046,0.8062,0.8073,0.8086,0.8098,0.8119,0.8129,0.8148,0.8165,0.8195,0.8209,0.8228,0.8231,0.824,0.8234,0.8231,0.8232,0.8232,0.8234,0.8241,0.8241,0.8242,0.8242,0,0.8004,0.8011,0.8027,0.8046,0.806,0.8075,0.8091,0.8099,0.8115,0.8128,0.8148,0.816,0.8186,0.8206,0.8227,0.8238,0.8243,0.8244,0.8248,0.8245,0.8241,0.8245,0.8217,0.8243,0.8243,0.8243,0.8243,0.8243,0.8013,0.8025,0.8043,0.8061,0.8075,0.809,0.8103,0.8115,0.8132,0.8154,0.8161,0.8182,0.8201,0.8229,0.8241,0.8258,0.8257,0.8262,0.8264,0.8265,0.8266,0.8238,0.8262,0.8262,0.8262,0.8262,0.8262,0,0.8028,0.804,0.8057,0.808,0.8095,0.8099,0.8117,0.8129,0.8148,0.8165,0.8181,0.8206,0.8226,0.8243,0.8264,0.8275,0.8278,0.828,0.8279,0.8282,0.8265,0.826,0.8277,0.8277,0.8277,0.8277,0.8277,0.8277,0.8037,0.8058,0.8067,0.8095,0.8108,0.8129,0.8139,0.8154,0.8167,0.8194,0.8211,0.8222,0.824,0.8263,0.8282,0.8287,0.8294,0.8296,0.8301,0.8285,0.8283,0.8281,0.8277,0.8298,0.8298,0.8318,0.8318,0.8318]},{"header":{"parameterUnit":"m.s-1","parameterCategory":1,"la1":30.2991,"la2":30.254,"lo1":-89.0895,"lo2":-89.0444,"dy":0.0017,"dx":0.0017,"nx":28,"ny":28,"refTime":"2025-07-31T21:00:00:Z","depth":0,"parameterNumber":3,"parameterNumberName":"V-component_of_WINDS"},"data":[0,0,0,0,0,0,0,0,0,0,0,0,0,0,0,0,0,0,0,0,0,0,0,0,0,0,0,0,0,0,0,0,0,0,0,0,0,0,0,0,0,0,0,0,0,0,0,0,0,0,0,0,0,0,0,0,0,0,-2.2398,-2.2399,0,-2.2438,-2.2439,-2.2439,-2.2446,-2.2445,-2.2445,-2.2445,-2.2483,-2.2484,-2.2485,0,0,0,0,0,0,0,0,0,0,0,0,0,-2.2324,-2.2325,-2.2398,-2.2399,-2.2399,-2.2438,-2.2439,-2.2439,-2.2446,-2.2445,-2.2445,-2.2445,-2.2482,-2.2484,-2.2486,0,0,0,0,0,0,0,0,0,0,0,0,0,-2.2359,-2.2326,-2.2398,-2.2407,-2.2408,-2.2438,-2.2439,-2.244,-2.2446,-2.2445,-2.2445,-2.2444,-2.2482,-2.2484,-2.2486,-2.2509,0,0,-2.2492,-2.2493,0,0,0,0,0,0,0,0,-2.2357,-2.2362,-2.2405,-2.2407,-2.2408,-2.2437,-2.2427,-2.2463,-2.2446,-2.2431,-2.2445,-2.2444,-2.2468,-2.2471,-2.2479,-2.251,-2.2512,-2.2492,-2.2493,-2.2494,-2.2495,0,0,0,0,0,0,0,-2.2355,-2.236,-2.2414,-2.2406,-2.2408,-2.2408,-2.2413,-2.2434,-2.2452,-2.2433,-2.2433,-2.2438,-2.2468,-2.2477,-2.248,-2.2513,-2.2492,-2.2494,-2.2495,-2.2496,-2.2564,-2.2565,0,0,0,0,0,0,-2.2351,-2.2358,-2.2413,-2.2415,-2.2381,-2.241,-2.2415,-2.2428,-2.2452,-2.2455,-2.2439,-2.2438,-2.2474,-2.2478,-2.2482,-2.251,-2.2494,-2.2496,-2.2497,-2.2563,-2.2564,-2.2565,0,0,0,0,0,0,-2.235,-2.2356,-2.2411,-2.2387,-2.2394,-2.2412,-2.2426,-2.2429,-2.2438,-2.2456,-2.2459,-2.2445,-2.2474,-2.2479,-2.2502,-2.2511,-2.2497,-2.2499,-2.2563,-2.2564,-2.2564,-2.2566,0,0,0,0,0,0,-2.2347,-2.2355,-2.2365,-2.2387,-2.2395,-2.2431,-2.2427,-2.243,-2.2442,-2.2442,-2.2463,-2.2466,-2.2474,-2.2499,-2.2504,-2.2514,-2.25,-2.2562,-2.2563,-2.2564,-2.2565,-2.2567,-2.2568,0,0,0,0,0,-2.2345,-2.2363,-2.2365,-2.2372,-2.2408,-2.2432,-2.2437,-2.2447,-2.2443,-2.2452,-2.2463,-2.2465,-2.251,-2.2501,-2.2507,-2.2517,-2.2561,-2.2563,-2.2564,-2.2564,-2.2566,-2.2568,0,0,0,0,0,0,-2.234,-2.2366,-2.2369,-2.2395,-2.2411,-2.2433,-2.2445,-2.2448,-2.2465,-2.2465,-2.2476,-2.248,-2.2503,-2.2512,-2.2503,-2.2541,-2.2535,-2.2538,-2.2533,-2.2535,-2.2537,-2.2534,-2.2502,0,0,0,0,0,-2.2342,-2.2361,-2.2382,-2.2403,-2.2411,-2.2427,-2.2438,-2.2444,-2.2461,-2.2468,-2.2481,-2.2497,-2.2514,-2.2525,-2.2543,-2.2567,-2.2571,-2.2577,-2.2578,-2.2579,-2.2581,-2.2594,-2.2597,-2.2569,-2.2569,-2.2569,0,0,-2.2346,-2.2363,-2.2374,-2.2402,-2.2416,-2.2434,-2.2432,-2.2452,-2.2465,-2.247,-2.2493,-2.2504,-2.2522,-2.2546,-2.2557,-2.2554,-2.259,-2.2581,-2.2582,-2.2583,-2.2596,-2.2599,-2.2601,-2.257,-2.257,-2.257,0,0,-2.2363,-2.2378,-2.2397,-2.2411,-2.2432,-2.2442,-2.2447,-2.2468,-2.2475,-2.2499,-2.2503,-2.2519,-2.2549,-2.2562,-2.2572,-2.2595,-2.2597,-2.26,-2.2608,-2.262,-2.2623,-2.2625,-2.2632,-2.2635,-2.2602,-2.2602,-2.2602,0,-2.2365,-2.2394,-2.2406,-2.2425,-2.2438,-2.2445,-2.2464,-2.2476,-2.2501,-2.2509,-2.2506,-2.2545,-2.2557,-2.2584,-2.259,-2.2598,-2.2603,-2.2597,-2.2622,-2.2624,-2.2626,-2.2633,-2.2636,-2.2602,-2.2602,-2.2602,-2.2602,0,-2.2395,-2.2415,-2.2428,-2.2453,-2.2467,-2.2486,-2.25,-2.2512,-2.2518,-2.2528,-2.2552,-2.2567,-2.2588,-2.2595,-2.26,-2.2622,-2.262,-2.2619,-2.2614,-2.2628,-2.2635,-2.2638,-2.2603,-2.2602,-2.2602,-2.2602,0,0,-2.2409,-2.2442,-2.2446,-2.2458,-2.2482,-2.2496,-2.2516,-2.2537,-2.2547,-2.2564,-2.258,-2.2605,-2.2605,-2.2617,-2.2624,-2.2635,-2.2651,-2.2633,-2.2633,-2.2635,-2.2676,-2.2676,-2.2679,-2.2653,-2.2654,-2.2654,-2.2675,0,-2.2428,-2.2464,-2.2475,-2.2504,-2.2522,-2.253,-2.2546,-2.2562,-2.2573,-2.2589,-2.26,-2.2618,-2.2616,-2.2624,-2.2635,-2.2647,-2.266,-2.2646,-2.2667,-2.2667,-2.2661,-2.2683,-2.2683,-2.2701,-2.2677,-2.2678,-2.2678,0,-2.2455,-2.2474,-2.2505,-2.2527,-2.2535,-2.255,-2.257,-2.2586,-2.2604,-2.2611,-2.2624,-2.263,-2.265,-2.2644,-2.2671,-2.2661,-2.2671,-2.2678,-2.2679,-2.268,-2.2673,-2.2684,-2.2707,-2.271,-2.2683,-2.2682,-2.2682,0,-2.2461,-2.2494,-2.2517,-2.2527,-2.2553,-2.2564,-2.2575,-2.2593,-2.2605,-2.2622,-2.263,-2.2649,-2.266,-2.2674,-2.2685,-2.268,-2.271,-2.2705,-2.2715,-2.2715,-2.2721,-2.272,-2.2745,-2.2728,-2.2728,-2.2728,-2.2728,0,-2.2481,-2.2499,-2.252,-2.2534,-2.2555,-2.2568,-2.2588,-2.26,-2.2616,-2.2632,-2.2639,-2.2654,-2.2667,-2.2683,-2.2692,-2.2712,-2.2717,-2.2722,-2.2724,-2.2721,-2.2721,-2.2727,-2.2726,-2.2729,-2.2729,-2.2729,-2.2728,0,-2.2491,-2.2506,-2.2531,-2.2555,-2.2561,-2.2575,-2.2595,-2.2608,-2.2619,-2.2639,-2.2644,-2.2661,-2.2681,-2.2693,-2.2718,-2.2723,-2.2745,-2.2747,-2.274,-2.274,-2.2749,-2.2748,-2.2778,-2.2783,-2.2764,-2.2764,-2.2764,0,-2.2502,-2.2517,-2.2542,-2.2554,-2.2565,-2.2584,-2.2597,-2.261,-2.2623,-2.2645,-2.2656,-2.2676,-2.2692,-2.2723,-2.2737,-2.2755,-2.2757,-2.2767,-2.276,-2.2756,-2.2756,-2.2755,-2.2756,-2.2767,-2.2767,-2.2768,-2.2768,0,-2.252,-2.2527,-2.2545,-2.2567,-2.2582,-2.2599,-2.2616,-2.2625,-2.2641,-2.2655,-2.2675,-2.2689,-2.2714,-2.2734,-2.2754,-2.2764,-2.2768,-2.277,-2.2773,-2.277,-2.2764,-2.2767,-2.2742,-2.2769,-2.2769,-2.2769,-2.2769,-2.2768,-2.2531,-2.2544,-2.2564,-2.2584,-2.2599,-2.2615,-2.2629,-2.2642,-2.266,-2.2682,-2.2689,-2.271,-2.2728,-2.2756,-2.2767,-2.2783,-2.2782,-2.2786,-2.2787,-2.2788,-2.2788,-2.2763,-2.2787,-2.2786,-2.2786,-2.2786,-2.2786,0,-2.2548,-2.2562,-2.2581,-2.2605,-2.2621,-2.2625,-2.2644,-2.2657,-2.2676,-2.2692,-2.2709,-2.2733,-2.2752,-2.2768,-2.2787,-2.2797,-2.2799,-2.2802,-2.2801,-2.2803,-2.2788,-2.2783,-2.2799,-2.2799,-2.2799,-2.2799,-2.2799,-2.2799,-2.2559,-2.2582,-2.2592,-2.2622,-2.2635,-2.2656,-2.2667,-2.2681,-2.2695,-2.2721,-2.2738,-2.2748,-2.2765,-2.2786,-2.2803,-2.2807,-2.2814,-2.2815,-2.282,-2.2805,-2.2804,-2.2802,-2.2798,-2.2817,-2.2817,-2.2833,-2.2833,-2.2833]}]]